Location: ??
(34.9170°N, 135.5016°E)
Time: 19:57:50
(UTC+00:00)

Transit 2A - Visible Passes

Search period start: 04 March 2021 00:00
Search period end: 14 March 2021 00:00
Orbit: 601 x 958 km, 66.7° (Epoch: 04 March)

Date Brightness Start Highest point End Pass type
(mag) Time Alt. Az. Time Alt. Az. Time Alt. Az.
04 Mar 9.0 10:48:50 10° WNW 10:49:46 10° NW 10:50:42 10° NW visible
05 Mar 8.6 10:12:14 10° W 10:15:21 16° NW 10:18:20 10° NNW visible
06 Mar 8.4 09:36:49 10° WSW 09:41:00 23° NW 09:44:56 10° N visible
